Time,TemperatureF,DewpointF,PressureIn,WindDirection,WindDirectionDegrees,WindSpeedMPH,WindSpeedGustMPH,Humidity,HourlyPrecipIn,Conditions,Clouds,dailyrainin,SoftwareType,DateUTC
2013-07-02 00:53:00,52.0,-99.9,29.44,WSW,250,15.0,-999.0,-999,-99.99,,,-99.99,,2013-07-02 08:53:00,
2013-07-02 01:02:00,52.0,-99.9,29.44,WSW,250,15.0,-999.0,-999,-99.99,,,-99.99,,2013-07-02 09:02:00,
2013-07-02 01:11:00,52.0,-99.9,29.44,WSW,250,15.0,-999.0,-999,-99.99,,,-99.99,,2013-07-02 09:11:00,
2013-07-02 01:23:00,52.0,-99.9,29.44,WSW,250,15.0,-999.0,-999,-99.99,,,-99.99,,2013-07-02 09:23:00,
2013-07-02 01:33:00,52.0,-99.9,29.44,WSW,250,15.0,-999.0,-999,-99.99,,,-99.99,,2013-07-02 09:33:00,
2013-07-02 06:53:00,48.0,-99.9,29.45,South,179,3.0,-999.0,-999,-99.99,,,-99.99,,2013-07-02 14:53:00,
2013-07-02 07:02:00,48.0,-99.9,29.45,South,179,3.0,-999.0,-999,-99.99,,,-99.99,,2013-07-02 15:02:00,
2013-07-02 07:12:00,48.0,-99.9,29.45,South,179,3.0,-999.0,-999,-99.99,,,-99.99,,2013-07-02 15:12:00,
2013-07-02 07:22:00,48.0,-99.9,29.45,South,180,2.0,-999.0,-999,-99.99,,,-99.99,,2013-07-02 15:22:00,
2013-07-02 07:33:00,48.0,-99.9,29.45,South,180,2.0,-999.0,-999,-99.99,,,-99.99,,2013-07-02 15:33:00,
2013-07-02 07:44:00,48.0,-99.9,29.45,South,180,2.0,-999.0,-999,-99.99,,,-99.99,,2013-07-02 15:44:00,
2013-07-02 07:53:00,48.0,-99.9,29.45,South,179,4.0,-999.0,-999,-99.99,,,-99.99,,2013-07-02 15:53:00,
2013-07-02 08:01:00,48.0,-99.9,29.45,South,179,4.0,-999.0,-999,-99.99,,,-99.99,,2013-07-02 16:01:00,
2013-07-02 08:12:00,48.0,-99.9,29.45,South,179,4.0,-999.0,-999,-99.99,,,-99.99,,2013-07-02 16:12:00,
2013-07-02 08:22:00,48.0,-99.9,29.45,South,179,4.0,-999.0,-999,-99.99,,,-99.99,,2013-07-02 16:22:00,
2013-07-02 08:33:00,48.0,-99.9,29.45,South,179,4.0,-999.0,-999,-99.99,,,-99.99,,2013-07-02 16:33:00,
2013-07-02 12:22:00,60.0,-99.9,29.51,SSE,162,6.0,-999.0,-999,-99.99,,,-99.99,,2013-07-02 20:22:00,
2013-07-02 12:33:00,60.0,-99.9,29.51,SSE,162,6.0,-999.0,-999,-99.99,,,-99.99,,2013-07-02 20:33:00,
2013-07-02 12:43:00,60.0,-99.9,29.51,SSE,162,6.0,-999.0,-999,-99.99,,,-99.99,,2013-07-02 20:43:00,
2013-07-02 12:52:00,60.0,-99.9,29.52,SSW,209,3.0,-999.0,-999,-99.99,,,-99.99,,2013-07-02 20:52:00,
2013-07-02 13:03:00,60.0,-99.9,29.52,SSW,209,3.0,-999.0,-999,-99.99,,,-99.99,,2013-07-02 21:03:00,
2013-07-02 13:11:00,60.0,-99.9,29.52,SSW,209,3.0,-999.0,-999,-99.99,,,-99.99,,2013-07-02 21:11:00,
2013-07-02 13:22:00,60.0,-99.9,29.52,South,179,3.0,-999.0,-999,-99.99,,,-99.99,,2013-07-02 21:22:00,
2013-07-02 13:33:00,60.0,-99.9,29.52,South,179,3.0,-999.0,-999,-99.99,,,-99.99,,2013-07-02 21:33:00,
2013-07-02 13:44:00,60.0,-99.9,29.52,South,179,3.0,-999.0,-999,-99.99,,,-99.99,,2013-07-02 21:44:00,
2013-07-02 13:52:00,60.0,-99.9,29.52,South,179,3.0,-999.0,-999,-99.99,,,-99.99,,2013-07-02 21:52:00,
2013-07-02 14:01:00,60.0,-99.9,29.52,South,179,3.0,-999.0,-999,-99.99,,,-99.99,,2013-07-02 22:01:00,
2013-07-02 18:34:00,60.0,-99.9,29.56,WSW,249,11.0,-999.0,-999,-99.99,,,-99.99,,2013-07-03 02:34:00,
2013-07-02 19:01:00,60.0,-99.9,29.56,WSW,249,11.0,-999.0,-999,-99.99,,,-99.99,,2013-07-03 03:01:00,
2013-07-02 19:08:00,60.0,-99.9,29.56,WSW,249,11.0,-999.0,-999,-99.99,,,-99.99,,2013-07-03 03:08:00,
2013-07-02 19:13:00,60.0,-99.9,29.56,WSW,249,11.0,-999.0,-999,-99.99,,,-99.99,,2013-07-03 03:13:00,
2013-07-02 19:26:00,60.0,-99.9,29.56,WSW,249,11.0,-999.0,-999,-99.99,,,-99.99,,2013-07-03 03:26:00,